FENGYUN 1C DEB, 31183

Orbit data source: Space-Track

FENGYUN 1C DEB, 31183 is space debris in SSO originally from a launch on Mon, 10 May 1999 UTC launched from the Taiyaun Space Center, China (TSC). Fengyun 1C debris stems from the Chinese weather satellite Fengyun-1C, which was intentionally destroyed by a Chinese anti-satellite missile in 2007. This event dramatically increased the amount of space debris, with thousands of trackable fragments posing hazards to satellites and human spaceflight. The Fengyun 1C debris cloud has become a focal point in discussions about space sustainability and the need for international regulations to prevent the creation of new debris.

Loading next visibility...
Identifier
31183, 1999-025BJM
Orbit
SSO
Country
Flag of CNCN / PRC
Related business
Manufacturer
Unknown
Mission
Spacecraft
Bus & Motor
Unknown
Mass
Unknown
Launch date (UTC)
1999-05-10 (27 years ago)
Launch vehicle
Unknown
Launch site
Taiyaun Space Center, China (TSC)
Object type
Payload
Rocket body
Debris
Shape & HBR
Unknown shape, 0.1 m
Radar Cross Section
Small (<0.1 m²)

Expand to show TLE details & history
Last TLE update: 14 hours ago

TLE from 14 hours ago
0 FENGYUN 1C DEB
1 31183U 99025BJM 25312.70564828  .00007431  00000-0  19065-2 0  9992
2 31183  99.0337 293.9958 0045701 209.6727 327.5974 14.49963187969894
Epoch: 2025-11-08T16:56Z
TLE epoch observation values (Epoch: 2025-11-08T16:56:08.011Z)
Latitude
2.87457°
Longitude
172.28595°
Altitude
701.013 km
Speed
7.52 km/s
True Right ascension
07h 37m 48s
True Declination
2° 51' 26"
Sunlit
Object was in daylight at epoch
Visualization orbit readout
Latitude
Unknown
Longitude
Unknown
Altitude
Unknown
Speed
Unknown
Apparent Right ascension
Unknown
Apparent Declination
Unknown
Sunlit
N/A
Visualization observer readout
Local Sidereal Time
03:39:44
Azimuth
Unknown
Elevation
Unknown
Doppler factor
Unknown
Orbital elements
Apogee altitude
755.356 km
Perigee altitude
690.451 km
Semi-major axis
7,101.04 km
Eccentricity
0.00457
Inclination
99.0337°
RAAN
293.9958°
Arg. of periapsis
209.6727°
True anomaly
327.31541°
Mean anomaly
327.5974°
Eccentric anomaly
327.45654°
Mean motion
3.62711 °/min
Orbital period
99.25 mins
BSTAR
0.0019065
Loading maneuver chart data...
Computing Atmospheric mass density...

Documentation

Showing up to 5 results
|